Showing default

EUTE 65W, 41382

Orbit data source: Space-Track

EUTE 65W, 41382 is a payload satellite owned by EutelsatSA (FR) in GEO that was launched on Wed, 09 Mar 2016 UTC via an ARIANE 5ECA launch vehicle from the French Guiana (FRGUI). Payload-class satellites include a variety of spacecraft equipped with specific instruments for various scientific and technological missions. These include communications satellites like Starlink; space stations such as the ISS; scientific satellites like the Hubble; Earth observation satellites from companies like Planet Labs, Umbra, and HawkEye 360; GPS; miniature CubeSats for education and research; and military/defense satellites.

Loading next visibility...
Identifier
41382, 2016-014A
Orbit
GEO
Country
Flag of UnknownUnknown / EUTE
Related business
Manufacturer
SS/Loral (MDA)
Mission
Operational Commercial Communications
Bus & Motor
SSL-1300, R-4D?
Mass
6,564 kg wet, ~3,500 kg dry
Launch date (UTC)
2016-03-09 (10 years ago)
Launch vehicle
ARIANE 5ECA
Launch site
French Guiana (FRGUI)
Object type
Payload
Rocket body
Debris
Shape & HBR
Box + 2 Pan, 13.0 m
Radar Cross Section
49.949 m², Large (>1 m²)

Expand to show TLE details & history
Last TLE update: 19 hours ago

TLE from 19 hours ago
0 EUTE 65W
1 41382U 16014A   25347.90414536 -.00000260  00000-0  00000-0 0  9992
2 41382   0.0531  17.0730 0002459 254.0850  71.9660  1.00271624 35674
Epoch: 2025-12-13T21:41Z
TLE epoch observation values (Epoch: 2025-12-13T21:41:58.159Z)
Latitude
-0.02768°
Longitude
-65.1747°
Altitude
35,782.933 km
Speed
3.075 km/s
True Right ascension
22h 52m 34s
True Declination
0° 01' 40"
Sunlit
Object was in daylight at epoch
Visualization orbit readout
Latitude
Unknown
Longitude
Unknown
Altitude
Unknown
Speed
Unknown
Apparent Right ascension
Unknown
Apparent Declination
Unknown
Sunlit
N/A
Visualization observer readout
Local Sidereal Time
14:46:11
Azimuth
Unknown
Elevation
Unknown
Doppler factor
Unknown
Orbital elements
Apogee altitude
35,798.079 km
Perigee altitude
35,777.342 km
Semi-major axis
42,165.847 km
Eccentricity
0.00025
Inclination
0.0531°
RAAN
17.073°
Arg. of periapsis
254.085°
True anomaly
71.9928°
Mean anomaly
71.966°
Eccentric anomaly
71.9794°
Mean motion
0.25067 °/min
Orbital period
1,436.15 mins
BSTAR
0
Loading maneuver chart data...
Computing Atmospheric mass density...
Loading historical data...
Loading historical data...
Loading historical data...
Loading historical data...
Loading historical data...
Loading historical data...
Loading historical data...
Other satellites on launch #14 in the year 2016 (2016-03-09 UTC)

Documentation

Showing up to 5 results
|